Flag for U.S.A. Weather past 2 weeks in Baltimore, Maryland, U.S.A.

57 °F

Mostly cloudy.

Feels Like: 57 °F
Forecast: 39 / 53 °F
Wind: No wind

Location: Baltimore-Washington International Airport

Current Time: Nov 28, 2015 at 9:16:38 PM

Latest Report: Nov 28, 2015 at 7:54 PM

Visibility: 10 mi

Pressure: 30.14 "Hg

Humidity: 90%

Dew point: 54 °F

Location of BaltimoreLocation

Historic Weather in Baltimore — Graph


Baltimore temperature yesterday

Maximum temperature yesterday: 67 °F (at 2:54 PM)
Minimum temperature yesterday: 37 °F (at 5:54 AM)
Average temperature yesterday: 51 °F

Past Weeks' High & Low Weather Summary

High69 °F (Nov 16, 12:54 PM)100% (Nov 19, 7:54 PM)30.79 "Hg (Nov 19, 7:54 PM)
Low29 °F (Nov 23, 8:54 PM)20% (Nov 20, 3:54 PM)29.89 "Hg (Nov 21, 11:54 PM)
Average48 °F63%30.29 "Hg
* Reported Nov 13 7:54 PM — Nov 28 7:54 PM, Baltimore, Weather by CustomWeather, © 2015

Note: Actual official high and low records may vary slightly from our data, if they occured in-between our weather recording intervals... More about our weather records


Baltimore weather history for previous 24 hours

Time TempWeatherWind HumidityBarometerVisibility
7:54 PM
Sat, Nov 28
57 °FMostly cloudy.No wind90%30.14 "Hg10 mi
6:54 PM58 °FLight rain. Mostly cloudy.No wind87%30.13 "Hg10 mi
5:54 PM60 °FLight rain. Overcast.No wind75%30.12 "Hg10 mi
4:54 PM62 °FMostly cloudy.3 mph70%30.12 "Hg10 mi
3:54 PM63 °FLight rain. Mostly cloudy.5 mph68%30.13 "Hg10 mi
2:54 PM65 °FCloudy.3 mph61%30.12 "Hg10 mi
1:54 PM65 °FMostly cloudy.6 mph61%30.13 "Hg10 mi
12:54 PM65 °FMostly cloudy.6 mph61%30.14 "Hg10 mi
11:54 AM62 °FPartly sunny.No wind67%30.15 "Hg10 mi
10:54 AM61 °FMostly cloudy.No wind70%30.18 "Hg10 mi
9:54 AM58 °FMostly cloudy.5 mph75%30.21 "Hg10 mi
8:54 AM53 °FBroken clouds.No wind86%30.20 "Hg10 mi
7:54 AM51 °FBroken clouds.3 mph89%30.20 "Hg10 mi
6:54 AM48 °FPassing clouds.5 mph93%30.21 "Hg10 mi
5:54 AM49 °FPassing clouds.3 mph93%30.21 "Hg10 mi
4:54 AM50 °FPassing clouds.3 mph93%30.20 "Hg10 mi
3:54 AM49 °FPartly cloudy.7 mph93%30.22 "Hg10 mi
2:54 AM50 °FPassing clouds.3 mph93%30.23 "Hg10 mi
1:54 AM52 °FPassing clouds.3 mph86%30.23 "Hg10 mi
12:54 AM53 °FPassing clouds.6 mph83%30.25 "Hg10 mi
11:54 PM
Fri, Nov 27
53 °FPassing clouds.5 mph83%30.27 "Hg10 mi
10:54 PM53 °FPassing clouds.3 mph80%30.28 "Hg10 mi
9:54 PM54 °FPassing clouds.6 mph77%30.29 "Hg10 mi
Weather by CustomWeather, © 2015

See weather overviewHow to use our weather pages